Tracking 30995 objects as of 5-Jul-2025
HD Live streaming from Space Station
objects crossing your sky now

OBJECT B

Track OBJECT B now!
10-day predictions


NORAD ID: 61180
Int'l Code: 2024-166B
Perigee: 347.4 km
Apogee: 354.7 km
Inclination: 96.7 °
Period: 91.4 minutes
Semi major axis: 6722 km
RCS: Unknown
Launch date: September 17, 2024
Source: Commonwealth of Independent States (former USSR) (CIS)
Launch site: PLESETSK MISSILE AND SPACE COMPLEX (PKMTR)

Note: This is SATELLITE DEBRIS
Your satellite tracking list
ATLAS 5 CENTAUR R/B
Track 1 satellite(s)




NASA's NSSDC Master Catalog

Two Line Element Set (TLE):
1 61180U 24166B   25186.53282629  .00005437  00000-0  37057-4 0  9999
2 61180  96.7231  84.6227 0005441 152.2145 207.9413 15.75257780 46169
Source of the keplerian elements: AFSPC